| time (UTC) | temp F | wind direction | speed MPH | gust MPH | rain 1hr in | rain 24hr in | rain mn in | humidity % | barometer mb |
| 20260901225552 | 66 | 90 | 6.0 | 8.0 | 0.00 | 0.00 | 0.00 | 76 | 1025.7 |
| 20260901225049 | 66 | 22 | 3.0 | 6.0 | 0.00 | 0.00 | 0.00 | 78 | 1025.8 |
| 20260901224547 | 65 | 56 | 4.0 | 9.0 | 0.00 | 0.00 | 0.00 | 78 | 1025.8 |
| 20260901224045 | 65 | 90 | 4.0 | 7.0 | 0.00 | 0.00 | 0.00 | 80 | 1025.9 |
| 20260901223542 | 65 | 112 | 3.0 | 6.0 | 0.00 | 0.00 | 0.00 | 82 | 1025.9 |
| 20260901223040 | 64 | 90 | 7.0 | 8.0 | 0.00 | 0.00 | 0.00 | 82 | 1025.7 |
| 20260901222537 | 63 | 45 | 4.0 | 6.0 | 0.00 | 0.00 | 0.00 | 85 | 1025.8 |
| 20260901222035 | 63 | 90 | 6.0 | 8.0 | 0.00 | 0.00 | 0.00 | 85 | 1025.7 |
| 20260901221534 | 62 | 90 | 5.0 | 8.0 | 0.00 | 0.00 | 0.00 | 87 | 1025.9 |
| 20260901221031 | 62 | 112 | 6.0 | 7.0 | 0.00 | 0.00 | 0.00 | 88 | 1025.9 |
| 20260901220529 | 61 | 90 | 6.0 | 8.0 | 0.00 | 0.00 | 0.00 | 90 | 1026.1 |
| 20260901220026 | 60 | 90 | 7.0 | 7.0 | 0.00 | 0.00 | 0.00 | 92 | 1026.2 |
| 20260901215524 | 60 | 90 | 7.0 | 7.0 | 0.00 | 0.00 | 0.00 | 94 | 1026.2 |
| 20260901215022 | 59 | 123 | 5.0 | 7.0 | 0.00 | 0.00 | 0.00 | 96 | 1026.2 |
| 20260901214519 | 58 | 90 | 8.0 | 8.0 | 0.00 | 0.00 | 0.00 | 97 | 1026.2 |
| 20260901214017 | 58 | 90 | 4.0 | 6.0 | 0.00 | 0.00 | 0.00 | 98 | 1026.2 |
| 20260901213012 | 56 | 112 | 4.0 | 6.0 | 0.00 | 0.00 | 0.00 | 98 | 1025.9 |
| 20260901212009 | 55 | 135 | 2.0 | 3.0 | 0.00 | 0.00 | 0.00 | 97 | 1025.9 |
| 20260901211509 | 54 | 135 | 3.0 | 3.0 | 0.00 | 0.00 | 0.00 | 96 | 1025.7 |
| 20260901211004 | 54 | 135 | 2.0 | 3.0 | 0.00 | 0.00 | 0.00 | 95 | 1025.7 |
| 20260901210506 | 53 | 135 | 2.0 | 2.0 | 0.00 | 0.00 | 0.00 | 95 | 1025.7 |
| 20260901210000 | 53 | 135 | 2.0 | 2.0 | 0.00 | 0.00 | 0.00 | 94 | 1025.6 |
| 20260901205456 | 53 | 157 | 2.0 | 3.0 | 0.00 | 0.00 | 0.00 | 94 | 1025.6 |
| 20260901204954 | 52 | 157 | 3.0 | 3.0 | 0.00 | 0.00 | 0.00 | 95 | 1025.5 |
| 20260901204453 | 52 | 135 | 2.0 | 3.0 | 0.00 | 0.00 | 0.00 | 95 | 1025.5 |
| 20260901203949 | 52 | 157 | 2.0 | 2.0 | 0.00 | 0.00 | 0.00 | 95 | 1025.4 |
| 20260901203449 | 52 | 168 | 2.0 | 3.0 | 0.00 | 0.00 | 0.00 | 95 | 1025.4 |
| 20260901202946 | 52 | 202 | 1.0 | 2.0 | 0.00 | 0.00 | 0.00 | 94 | 1025.3 |
| 20260901202444 | 52 | 180 | 1.0 | 3.0 | 0.00 | 0.00 | 0.00 | 94 | 1025.3 |
| 20260901201441 | 52 | 180 | 2.0 | 3.0 | 0.00 | 0.00 | 0.00 | 94 | 1025.2 |
| 20260901200938 | 52 | 180 | 2.0 | 4.0 | 0.00 | 0.00 | 0.00 | 94 | 1025.2 |
| 20260901200435 | 52 | 180 | 3.0 | 3.0 | 0.00 | 0.00 | 0.00 | 93 | 1025.1 |
| 20260901195932 | 52 | 168 | 2.0 | 3.0 | 0.00 | 0.00 | 0.00 | 93 | 1024.9 |
| 20260901194928 | 53 | 157 | 3.0 | 3.0 | 0.00 | 0.00 | 0.00 | 92 | 1024.8 |
| 20260901194424 | 53 | 146 | 2.0 | 3.0 | 0.00 | 0.00 | 0.00 | 92 | 1024.7 |
| 20260901193925 | 53 | 157 | 3.0 | 3.0 | 0.00 | 0.00 | 0.00 | 92 | 1024.7 |
| 20260901193420 | 53 | 157 | 3.0 | 3.0 | 0.00 | 0.00 | 0.00 | 92 | 1024.6 |
| 20260901192918 | 53 | 168 | 2.0 | 3.0 | 0.00 | 0.00 | 0.00 | 92 | 1024.5 |
| 20260901192416 | 53 | 157 | 2.0 | 3.0 | 0.00 | 0.00 | 0.00 | 91 | 1024.6 |
| 20260901191913 | 53 | 135 | 1.0 | 2.0 | 0.00 | 0.00 | 0.00 | 90 | 1024.4 |
| 20260901191410 | 53 | 180 | 3.0 | 3.0 | 0.00 | 0.00 | 0.00 | 90 | 1024.3 |
| 20260901190908 | 53 | 180 | 1.0 | 2.0 | 0.00 | 0.00 | 0.00 | 90 | 1024.4 |
| 20260901190406 | 53 | 180 | 2.0 | 3.0 | 0.00 | 0.00 | 0.00 | 90 | 1024.3 |
| 20260901185904 | 53 | 180 | 2.0 | 2.0 | 0.00 | 0.00 | 0.00 | 90 | 1024.4 |
| 20260901185401 | 53 | 202 | 2.0 | 2.0 | 0.00 | 0.00 | 0.00 | 90 | 1024.3 |
| 20260901184859 | 53 | 180 | 2.0 | 2.0 | 0.00 | 0.00 | 0.00 | 90 | 1024.4 |
| 20260901184357 | 53 | 135 | 2.0 | 3.0 | 0.00 | 0.00 | 0.00 | 89 | 1024.3 |
| 20260901183855 | 53 | 157 | 2.0 | 4.0 | 0.00 | 0.00 | 0.00 | 90 | 1024.3 |
| 20260901183353 | 53 | 180 | 2.0 | 3.0 | 0.00 | 0.00 | 0.00 | 90 | 1024.4 |
| 20260901182347 | 53 | 180 | 1.0 | 2.0 | 0.00 | 0.00 | 0.00 | 89 | 1024.2 |
| 20260901181845 | 53 | 180 | 2.0 | 2.0 | 0.00 | 0.00 | 0.00 | 88 | 1024.1 |
| 20260901181343 | 53 | 157 | 2.0 | 2.0 | 0.00 | 0.00 | 0.00 | 87 | 1024.1 |
| 20260901180841 | 53 | 135 | 2.0 | 2.0 | 0.00 | 0.00 | 0.00 | 87 | 1024.1 |
| 20260901180338 | 53 | 157 | 1.0 | 2.0 | 0.00 | 0.00 | 0.00 | 85 | 1024.0 |
| 20260901175331 | 53 | 180 | 1.0 | 1.0 | 0.00 | 0.00 | 0.00 | 82 | 1023.9 |
| 20260901174829 | 54 | 180 | 1.0 | 1.0 | 0.00 | 0.00 | 0.00 | 82 | 1023.9 |
| 20260901174327 | 54 | 213 | 1.0 | 1.0 | 0.00 | 0.00 | 0.00 | 83 | 1024.0 |
| 20260901173824 | 54 | 180 | 0.0 | 0.0 | 0.00 | 0.00 | 0.00 | 83 | 1024.0 |
| 20260901173321 | 55 | 225 | 1.0 | 1.0 | 0.00 | 0.00 | 0.00 | 84 | 1024.1 |
| 20260901172819 | 55 | 270 | 0.0 | 1.0 | 0.00 | 0.00 | 0.00 | 85 | 1024.3 |
| 20260901172317 | 55 | 180 | 1.0 | 2.0 | 0.00 | 0.00 | 0.00 | 86 | 1024.3 |
| 20260901171815 | 55 | 180 | 2.0 | 3.0 | 0.00 | 0.00 | 0.00 | 87 | 1024.4 |
| 20260901171313 | 55 | 191 | 3.0 | 3.0 | 0.00 | 0.00 | 0.00 | 87 | 1024.4 |
| 20260901170810 | 55 | 180 | 2.0 | 3.0 | 0.00 | 0.00 | 0.00 | 87 | 1024.4 |
| 20260901170308 | 55 | 180 | 3.0 | 3.0 | 0.00 | 0.00 | 0.00 | 88 | 1024.6 |
| 20260901165806 | 55 | 191 | 3.0 | 4.0 | 0.00 | 0.00 | 0.00 | 87 | 1024.6 |
| 20260901165306 | 55 | 202 | 2.0 | 3.0 | 0.00 | 0.00 | 0.00 | 86 | 1024.5 |
| 20260901164801 | 55 | 202 | 2.0 | 3.0 | 0.00 | 0.00 | 0.00 | 86 | 1024.6 |
| 20260901164258 | 55 | 191 | 3.0 | 4.0 | 0.00 | 0.00 | 0.00 | 87 | 1024.5 |
| 20260901163758 | 55 | 180 | 3.0 | 4.0 | 0.00 | 0.00 | 0.00 | 85 | 1024.5 |
| 20260901163254 | 55 | 180 | 3.0 | 4.0 | 0.00 | 0.00 | 0.00 | 86 | 1024.5 |
| 20260901162752 | 55 | 180 | 3.0 | 4.0 | 0.00 | 0.00 | 0.00 | 86 | 1024.5 |
| 20260901162250 | 56 | 180 | 2.0 | 3.0 | 0.00 | 0.00 | 0.00 | 84 | 1024.5 |
| 20260901161747 | 56 | 180 | 2.0 | 4.0 | 0.00 | 0.00 | 0.00 | 84 | 1024.5 |
| 20260901161245 | 56 | 202 | 3.0 | 3.0 | 0.00 | 0.00 | 0.00 | 83 | 1024.4 |
| 20260901160743 | 56 | 180 | 2.0 | 4.0 | 0.00 | 0.00 | 0.00 | 83 | 1024.4 |
| 20260901160241 | 56 | 180 | 3.0 | 4.0 | 0.00 | 0.00 | 0.00 | 83 | 1024.5 |
| 20260901155743 | 57 | 180 | 2.0 | 3.0 | 0.00 | 0.00 | 0.00 | 82 | 1024.5 |
| 20260901155236 | 57 | 180 | 3.0 | 3.0 | 0.00 | 0.00 | 0.00 | 82 | 1024.5 |
| 20260901154733 | 57 | 180 | 2.0 | 2.0 | 0.00 | 0.00 | 0.00 | 81 | 1024.4 |
| 20260901154233 | 58 | 180 | 2.0 | 2.0 | 0.00 | 0.00 | 0.00 | 80 | 1024.5 |
| 20260901153729 | 58 | 135 | 1.0 | 2.0 | 0.00 | 0.00 | 0.00 | 80 | 1024.5 |
| 20260901153227 | 58 | 146 | 1.0 | 1.0 | 0.00 | 0.00 | 0.00 | 80 | 1024.5 |
| 20260901152725 | 58 | 123 | 2.0 | 2.0 | 0.00 | 0.00 | 0.00 | 79 | 1024.5 |
| 20260901152222 | 58 | 135 | 1.0 | 2.0 | 0.00 | 0.00 | 0.00 | 78 | 1024.5 |
| 20260901151720 | 58 | 90 | 1.0 | 1.0 | 0.00 | 0.00 | 0.00 | 78 | 1024.5 |
| 20260901151221 | 58 | 90 | 1.0 | 1.0 | 0.00 | 0.00 | 0.00 | 78 | 1024.6 |
| 20260901150719 | 59 | 67 | 0.0 | 2.0 | 0.00 | 0.00 | 0.00 | 78 | 1024.6 |
| 20260901150213 | 59 | 90 | 1.0 | 3.0 | 0.00 | 0.00 | 0.00 | 78 | 1024.7 |
| 20260901145710 | 59 | 67 | 1.0 | 3.0 | 0.00 | 0.00 | 0.00 | 78 | 1024.6 |
| 20260901145208 | 59 | 33 | 1.0 | 2.0 | 0.00 | 0.00 | 0.00 | 78 | 1024.6 |
| 20260901144706 | 59 | 67 | 2.0 | 2.0 | 0.00 | 0.00 | 0.00 | 77 | 1024.7 |
| 20260901144204 | 60 | 45 | 2.0 | 2.0 | 0.00 | 0.00 | 0.00 | 77 | 1024.8 |
| 20260901143702 | 60 | 45 | 1.0 | 3.0 | 0.00 | 0.00 | 0.00 | 78 | 1024.8 |
| 20260901143159 | 60 | 45 | 3.0 | 3.0 | 0.00 | 0.00 | 0.00 | 78 | 1024.8 |
| 20260901142657 | 60 | 45 | 2.0 | 3.0 | 0.00 | 0.00 | 0.00 | 78 | 1024.7 |
| 20260901142155 | 60 | 11 | 2.0 | 3.0 | 0.00 | 0.00 | 0.00 | 79 | 1024.8 |
| 20260901141652 | 60 | 45 | 2.0 | 4.0 | 0.00 | 0.00 | 0.00 | 76 | 1024.7 |
| 20260901141150 | 60 | 45 | 1.0 | 3.0 | 0.00 | 0.00 | 0.00 | 75 | 1024.6 |
| 20260901140648 | 61 | 11 | 4.0 | 4.0 | 0.00 | 0.00 | 0.00 | 76 | 1024.7 |
| 20260901140145 | 61 | 33 | 3.0 | 4.0 | 0.00 | 0.00 | 0.00 | 76 | 1024.7 |
| 20260901135643 | 61 | 45 | 2.0 | 4.0 | 0.00 | 0.00 | 0.00 | 77 | 1024.8 |
| 20260901135141 | 61 | 0 | 2.0 | 4.0 | 0.00 | 0.00 | 0.00 | 75 | 1024.7 |
| 20260901134639 | 61 | 45 | 3.0 | 4.0 | 0.00 | 0.00 | 0.00 | 75 | 1024.8 |
| 20260901134137 | 62 | 45 | 4.0 | 4.0 | 0.00 | 0.00 | 0.00 | 71 | 1024.6 |
| 20260901133634 | 62 | 45 | 3.0 | 5.0 | 0.00 | 0.00 | 0.00 | 71 | 1024.6 |
| 20260901133132 | 62 | 45 | 3.0 | 3.0 | 0.00 | 0.00 | 0.00 | 70 | 1024.5 |
| 20260901132630 | 62 | 45 | 3.0 | 4.0 | 0.00 | 0.00 | 0.00 | 70 | 1024.6 |
| 20260901132127 | 62 | 67 | 2.0 | 4.0 | 0.00 | 0.00 | 0.00 | 69 | 1024.7 |
| 20260901131625 | 62 | 67 | 2.0 | 4.0 | 0.00 | 0.00 | 0.00 | 69 | 1024.6 |
| 20260901131123 | 62 | 45 | 3.0 | 5.0 | 0.00 | 0.00 | 0.00 | 69 | 1024.7 |
| 20260901130620 | 62 | 67 | 4.0 | 5.0 | 0.00 | 0.00 | 0.00 | 70 | 1024.7 |
| 20260901130118 | 63 | 45 | 4.0 | 5.0 | 0.00 | 0.00 | 0.00 | 69 | 1024.8 |
| 20260901125616 | 63 | 67 | 4.0 | 7.0 | 0.00 | 0.00 | 0.00 | 68 | 1024.8 |
| 20260901125114 | 63 | 45 | 4.0 | 7.0 | 0.00 | 0.00 | 0.00 | 68 | 1024.8 |
| 20260901124611 | 63 | 0 | 3.0 | 5.0 | 0.00 | 0.00 | 0.00 | 67 | 1024.7 |
| 20260901124109 | 63 | 56 | 4.0 | 6.0 | 0.00 | 0.00 | 0.00 | 67 | 1024.7 |
| 20260901123607 | 63 | 45 | 5.0 | 5.0 | 0.00 | 0.00 | 0.00 | 65 | 1024.6 |
| 20260901123104 | 63 | 45 | 5.0 | 5.0 | 0.00 | 0.00 | 0.00 | 67 | 1024.6 |
| 20260901122602 | 63 | 78 | 2.0 | 5.0 | 0.00 | 0.00 | 0.00 | 63 | 1024.5 |
| 20260901122100 | 63 | 45 | 3.0 | 5.0 | 0.00 | 0.00 | 0.00 | 62 | 1024.5 |
| 20260901121557 | 62 | 22 | 3.0 | 5.0 | 0.00 | 0.00 | 0.00 | 60 | 1024.3 |
| 20260901121055 | 62 | 45 | 6.0 | 8.0 | 0.00 | 0.00 | 0.00 | 61 | 1024.4 |
| 20260901120553 | 62 | 45 | 2.0 | 7.0 | 0.00 | 0.00 | 0.00 | 57 | 1024.2 |
| 20260901120051 | 62 | 90 | 3.0 | 7.0 | 0.00 | 0.00 | 0.00 | 58 | 1024.2 |
| 20260901115549 | 62 | 11 | 4.0 | 5.0 | 0.00 | 0.00 | 0.00 | 54 | 1024.0 |
| 20260901115046 | 62 | 112 | 0.0 | 3.0 | 0.00 | 0.00 | 0.00 | 48 | 1023.6 |
| 20260901114546 | 62 | 90 | 1.0 | 2.0 | 0.00 | 0.00 | 0.00 | 48 | 1023.5 |
| 20260901114043 | 62 | 45 | 2.0 | 3.0 | 0.00 | 0.00 | 0.00 | 47 | 1023.4 |
| 20260901113539 | 62 | 78 | 1.0 | 4.0 | 0.00 | 0.00 | 0.00 | 47 | 1023.5 |
| 20260901113037 | 62 | 67 | 3.0 | 4.0 | 0.00 | 0.00 | 0.00 | 46 | 1023.4 |
| 20260901112535 | 62 | 135 | 5.0 | 5.0 | 0.00 | 0.00 | 0.00 | 43 | 1023.2 |
| 20260901112032 | 63 | 180 | 1.0 | 2.0 | 0.00 | 0.00 | 0.00 | 43 | 1023.0 |
| 20260901111531 | 63 | 180 | 1.0 | 1.0 | 0.00 | 0.00 | 0.00 | 42 | 1022.9 |
| 20260901111028 | 63 | 225 | 0.0 | 0.0 | 0.00 | 0.00 | 0.00 | 42 | 1022.9 |
| 20260901110526 | 64 | 315 | 0.0 | 0.0 | 0.00 | 0.00 | 0.00 | 41 | 1022.9 |
| 20260901110024 | 64 | 315 | 0.0 | 0.0 | 0.00 | 0.00 | 0.00 | 41 | 1022.8 |
| 20260901105521 | 65 | 315 | 0.0 | 1.0 | 0.00 | 0.00 | 0.00 | 41 | 1022.8 |
| 20260901105018 | 65 | 315 | 1.0 | 1.0 | 0.00 | 0.00 | 0.00 | 41 | 1022.9 |
| 20260901104516 | 65 | 315 | 1.0 | 1.0 | 0.00 | 0.00 | 0.00 | 41 | 1022.8 |
| 20260901104014 | 65 | 315 | 1.0 | 1.0 | 0.00 | 0.00 | 0.00 | 41 | 1022.8 |
| 20260901103512 | 65 | 315 | 1.0 | 1.0 | 0.00 | 0.00 | 0.00 | 41 | 1022.8 |
| 20260901103009 | 65 | 0 | 0.0 | 1.0 | 0.00 | 0.00 | 0.00 | 40 | 1022.8 |
| 20260901102507 | 66 | 315 | 1.0 | 1.0 | 0.00 | 0.00 | 0.00 | 40 | 1022.7 |
| 20260901102005 | 66 | 56 | 1.0 | 1.0 | 0.00 | 0.00 | 0.00 | 39 | 1022.7 |
| 20260901101503 | 66 | 45 | 1.0 | 1.0 | 0.00 | 0.00 | 0.00 | 39 | 1022.7 |
| 20260901101001 | 67 | 90 | 0.0 | 1.0 | 0.00 | 0.00 | 0.00 | 39 | 1022.7 |
| 20260901100458 | 67 | 135 | 0.0 | 2.0 | 0.00 | 0.00 | 0.00 | 39 | 1022.7 |
| 20260901095955 | 67 | 180 | 1.0 | 2.0 | 0.00 | 0.00 | 0.00 | 38 | 1022.7 |
| 20260901095453 | 67 | 135 | 1.0 | 2.0 | 0.00 | 0.00 | 0.00 | 38 | 1022.5 |
| 20260901094951 | 67 | 180 | 1.0 | 2.0 | 0.00 | 0.00 | 0.00 | 38 | 1022.5 |
| 20260901094449 | 67 | 157 | 2.0 | 4.0 | 0.00 | 0.00 | 0.00 | 37 | 1022.4 |
| 20260901093947 | 67 | 157 | 3.0 | 3.0 | 0.00 | 0.00 | 0.00 | 37 | 1022.3 |
| 20260901093444 | 67 | 157 | 2.0 | 2.0 | 0.00 | 0.00 | 0.00 | 37 | 1022.3 |
| 20260901092942 | 68 | 180 | 2.0 | 3.0 | 0.00 | 0.00 | 0.00 | 37 | 1022.3 |
| 20260901092440 | 68 | 180 | 2.0 | 2.0 | 0.00 | 0.00 | 0.00 | 37 | 1022.3 |
| 20260901091938 | 68 | 180 | 2.0 | 2.0 | 0.00 | 0.00 | 0.00 | 36 | 1022.2 |
| 20260901090930 | 69 | 135 | 2.0 | 2.0 | 0.00 | 0.00 | 0.00 | 36 | 1022.1 |
| 20260901090426 | 69 | 168 | 2.0 | 2.0 | 0.00 | 0.00 | 0.00 | 35 | 1022.1 |
| 20260901085924 | 69 | 157 | 2.0 | 3.0 | 0.00 | 0.00 | 0.00 | 35 | 1022.0 |
| 20260901085422 | 70 | 135 | 2.0 | 3.0 | 0.00 | 0.00 | 0.00 | 34 | 1021.9 |
| 20260901084922 | 70 | 157 | 2.0 | 3.0 | 0.00 | 0.00 | 0.00 | 34 | 1021.8 |
| 20260901084417 | 70 | 90 | 2.0 | 2.0 | 0.00 | 0.00 | 0.00 | 34 | 1021.7 |
| 20260901083915 | 70 | 112 | 3.0 | 3.0 | 0.00 | 0.00 | 0.00 | 34 | 1021.8 |
| 20260901083413 | 71 | 135 | 3.0 | 3.0 | 0.00 | 0.00 | 0.00 | 33 | 1021.6 |
| 20260901082911 | 71 | 135 | 3.0 | 3.0 | 0.00 | 0.00 | 0.00 | 33 | 1021.6 |
| 20260901082410 | 71 | 90 | 2.0 | 2.0 | 0.00 | 0.00 | 0.00 | 33 | 1021.6 |
| 20260901081905 | 72 | 135 | 2.0 | 3.0 | 0.00 | 0.00 | 0.00 | 33 | 1021.5 |
| 20260901081403 | 72 | 135 | 2.0 | 3.0 | 0.00 | 0.00 | 0.00 | 32 | 1021.5 |
| 20260901080902 | 73 | 90 | 2.0 | 2.0 | 0.00 | 0.00 | 0.00 | 32 | 1021.4 |
| 20260901080400 | 73 | 112 | 2.0 | 3.0 | 0.00 | 0.00 | 0.00 | 31 | 1021.4 |
| 20260901075857 | 74 | 90 | 2.0 | 3.0 | 0.00 | 0.00 | 0.00 | 31 | 1021.4 |
| 20260901073848 | 76 | 112 | 4.0 | 4.0 | 0.00 | 0.00 | 0.00 | 29 | 1021.3 |
| 20260901073346 | 76 | 90 | 5.0 | 5.0 | 0.00 | 0.00 | 0.00 | 28 | 1021.2 |
| 20260901072841 | 76 | 112 | 2.0 | 5.0 | 0.00 | 0.00 | 0.00 | 28 | 1021.2 |
| 20260901072339 | 77 | 112 | 5.0 | 8.0 | 0.00 | 0.00 | 0.00 | 27 | 1021.3 |
| 20260901071837 | 77 | 90 | 4.0 | 7.0 | 0.00 | 0.00 | 0.00 | 27 | 1021.2 |
| 20260901071335 | 77 | 112 | 7.0 | 7.0 | 0.00 | 0.00 | 0.00 | 27 | 1021.1 |
| 20260901070834 | 78 | 90 | 6.0 | 10.0 | 0.00 | 0.00 | 0.00 | 27 | 1021.1 |
| 20260901070331 | 78 | 90 | 7.0 | 9.0 | 0.00 | 0.00 | 0.00 | 27 | 1021.1 |
| 20260901065828 | 78 | 135 | 5.0 | 9.0 | 0.00 | 0.00 | 0.00 | 28 | 1021.1 |
| 20260901065327 | 78 | 135 | 9.0 | 9.0 | 0.00 | 0.00 | 0.00 | 28 | 1021.0 |
| 20260901064823 | 78 | 90 | 3.0 | 6.0 | 0.00 | 0.00 | 0.00 | 28 | 1021.1 |
| 20260901064323 | 78 | 112 | 6.0 | 7.0 | 0.00 | 0.00 | 0.00 | 28 | 1021.1 |
| 20260901063819 | 79 | 22 | 6.0 | 6.0 | 0.00 | 0.00 | 0.00 | 26 | 1021.0 |
| 20260901063317 | 79 | 67 | 5.0 | 7.0 | 0.00 | 0.00 | 0.00 | 27 | 1021.1 |
| 20260901062815 | 79 | 90 | 1.0 | 9.0 | 0.00 | 0.00 | 0.00 | 27 | 1021.0 |
| 20260901062311 | 79 | 67 | 8.0 | 10.0 | 0.00 | 0.00 | 0.00 | 26 | 1021.1 |
| 20260901061809 | 79 | 90 | 9.0 | 9.0 | 0.00 | 0.00 | 0.00 | 27 | 1021.1 |
| 20260901061308 | 79 | 112 | 4.0 | 12.0 | 0.00 | 0.00 | 0.00 | 28 | 1021.2 |
| 20260901060935 | 79 | 90 | 12.0 | 12.0 | 0.00 | 0.00 | 0.00 | 27 | 1021.2 |
| 20260901060703 | 79 | 112 | 3.0 | 6.0 | 0.00 | 0.00 | 0.00 | 28 | 1021.3 |
| 20260901060201 | 79 | 135 | 7.0 | 7.0 | 0.00 | 0.00 | 0.00 | 27 | 1021.2 |
| 20260901055659 | 79 | 90 | 5.0 | 8.0 | 0.00 | 0.00 | 0.00 | 27 | 1021.2 |
| 20260901055157 | 79 | 45 | 4.0 | 6.0 | 0.00 | 0.00 | 0.00 | 26 | 1021.2 |
| 20260901054652 | 79 | 90 | 5.0 | 8.0 | 0.00 | 0.00 | 0.00 | 26 | 1021.1 |
| 20260901054151 | 79 | 135 | 10.0 | 11.0 | 0.00 | 0.00 | 0.00 | 26 | 1021.1 |
| 20260901053647 | 79 | 90 | 7.0 | 11.0 | 0.00 | 0.00 | 0.00 | 26 | 1021.3 |
| 20260901053148 | 79 | 90 | 3.0 | 13.0 | 0.00 | 0.00 | 0.00 | 28 | 1021.3 |
| 20260901052643 | 79 | 45 | 6.0 | 11.0 | 0.00 | 0.00 | 0.00 | 26 | 1021.3 |
| 20260901052141 | 79 | 78 | 5.0 | 9.0 | 0.00 | 0.00 | 0.00 | 27 | 1021.3 |
| 20260901051640 | 79 | 90 | 11.0 | 11.0 | 0.00 | 0.00 | 0.00 | 27 | 1021.4 |
| 20260901051428 | 79 | 90 | 1.0 | 6.0 | 0.00 | 0.00 | 0.00 | 28 | 1021.3 |
| 20260901050926 | 79 | 67 | 7.0 | 11.0 | 0.00 | 0.00 | 0.00 | 27 | 1021.4 |
| 20260901050040 | 79 | 123 | 3.0 | 7.0 | 0.00 | 0.00 | 0.00 | 28 | 1021.4 |
| 20260901045538 | 79 | 45 | 6.0 | 9.0 | 0.00 | 0.00 | 0.00 | 28 | 1021.5 |
| 20260901045037 | 79 | 67 | 8.0 | 11.0 | 0.00 | 0.00 | 0.00 | 27 | 1021.5 |
| 20260901044532 | 79 | 45 | 12.0 | 12.0 | 0.00 | 0.00 | 0.00 | 28 | 1021.6 |
| 20260901044113 | 79 | 90 | 3.0 | 10.0 | 0.00 | 0.00 | 0.00 | 29 | 1021.7 |
| 20260901043610 | 79 | 90 | 7.0 | 9.0 | 0.00 | 0.00 | 0.00 | 29 | 1021.8 |
| 20260901043107 | 78 | 135 | 6.0 | 12.0 | 0.00 | 0.00 | 0.00 | 30 | 1021.9 |
| 20260901042605 | 78 | 90 | 8.0 | 10.0 | 0.00 | 0.00 | 0.00 | 29 | 1021.9 |
| 20260901042101 | 78 | 90 | 10.0 | 12.0 | 0.00 | 0.00 | 0.00 | 29 | 1022.0 |
| 20260901041601 | 78 | 67 | 10.0 | 10.0 | 0.00 | 0.00 | 0.00 | 29 | 1022.0 |
| 20260901041308 | 78 | 56 | 2.0 | 11.0 | 0.00 | 0.00 | 0.00 | 31 | 1022.2 |
| 20260901040916 | 78 | 45 | 10.0 | 10.0 | 0.00 | 0.00 | 0.00 | 31 | 1022.3 |
| 20260901040415 | 78 | 202 | 2.0 | 11.0 | 0.00 | 0.00 | 0.00 | 31 | 1022.4 |
| 20260901040251 | 78 | 135 | 11.0 | 11.0 | 0.00 | 0.00 | 0.00 | 31 | 1022.4 |
| 20260901040000 | 78 | 45 | 3.0 | 13.0 | 0.00 | 0.00 | 0.00 | 32 | 1022.5 |
| 20260901035458 | 78 | 90 | 10.0 | 14.0 | 0.00 | 0.00 | 0.00 | 32 | 1022.6 |
| 20260901034955 | 78 | 90 | 11.0 | 13.0 | 0.00 | 0.00 | 0.00 | 31 | 1022.6 |
| 20260901034453 | 78 | 90 | 14.0 | 14.0 | 0.00 | 0.00 | 0.00 | 31 | 1022.5 |
| 20260901034351 | 78 | 90 | 5.0 | 13.0 | 0.00 | 0.00 | 0.00 | 32 | 1022.7 |
| 20260901033847 | 78 | 78 | 7.0 | 13.0 | 0.00 | 0.00 | 0.00 | 32 | 1022.7 |
| 20260901033347 | 78 | 123 | 9.0 | 13.0 | 0.00 | 0.00 | 0.00 | 32 | 1022.7 |
| 20260901032844 | 78 | 90 | 6.0 | 6.0 | 0.00 | 0.00 | 0.00 | 33 | 1022.9 |
| 20260901032341 | 77 | 135 | 8.0 | 13.0 | 0.00 | 0.00 | 0.00 | 32 | 1022.9 |
| 20260901031840 | 77 | 33 | 6.0 | 12.0 | 0.00 | 0.00 | 0.00 | 31 | 1023.0 |
| 20260901031338 | 77 | 45 | 11.0 | 11.0 | 0.00 | 0.00 | 0.00 | 33 | 1023.2 |
| 20260901031036 | 77 | 225 | 1.0 | 8.0 | 0.00 | 0.00 | 0.00 | 34 | 1023.1 |
| 20260901030533 | 77 | 45 | 2.0 | 11.0 | 0.00 | 0.00 | 0.00 | 34 | 1023.5 |
| 20260901030431 | 77 | 157 | 11.0 | 11.0 | 0.00 | 0.00 | 0.00 | 33 | 1023.4 |
| 20260901030250 | 77 | 45 | 1.0 | 12.0 | 0.00 | 0.00 | 0.00 | 33 | 1023.5 |
| 20260901030106 | 77 | 90 | 11.0 | 12.0 | 0.00 | 0.00 | 0.00 | 33 | 1023.6 |
| 20260901025604 | 77 | 45 | 9.0 | 15.0 | 0.00 | 0.00 | 0.00 | 32 | 1023.5 |
| 20260901025100 | 77 | 135 | 9.0 | 11.0 | 0.00 | 0.00 | 0.00 | 34 | 1023.8 |
| 20260901024558 | 77 | 45 | 3.0 | 13.0 | 0.00 | 0.00 | 0.00 | 35 | 1023.9 |
| 20260901024156 | 77 | 78 | 12.0 | 13.0 | 0.00 | 0.00 | 0.00 | 34 | 1023.8 |
| 20260901023654 | 77 | 67 | 8.0 | 10.0 | 0.00 | 0.00 | 0.00 | 34 | 1023.9 |
| 20260901023152 | 76 | 90 | 8.0 | 10.0 | 0.00 | 0.00 | 0.00 | 35 | 1024.0 |
| 20260901022650 | 76 | 67 | 2.0 | 9.0 | 0.00 | 0.00 | 0.00 | 34 | 1024.0 |
| 20260901022149 | 76 | 90 | 8.0 | 14.0 | 0.00 | 0.00 | 0.00 | 35 | 1024.2 |
| 20260901021647 | 76 | 45 | 11.0 | 12.0 | 0.00 | 0.00 | 0.00 | 36 | 1024.3 |
| 20260901021143 | 76 | 45 | 6.0 | 12.0 | 0.00 | 0.00 | 0.00 | 36 | 1024.5 |
| 20260901020641 | 76 | 45 | 5.0 | 15.0 | 0.00 | 0.00 | 0.00 | 37 | 1024.6 |
| 20260901020139 | 75 | 90 | 12.0 | 13.0 | 0.00 | 0.00 | 0.00 | 37 | 1024.8 |
| 20260901015638 | 75 | 135 | 12.0 | 12.0 | 0.00 | 0.00 | 0.00 | 38 | 1024.9 |
| 20260901015353 | 75 | 22 | 2.0 | 10.0 | 0.00 | 0.00 | 0.00 | 39 | 1025.0 |
| 20260901014853 | 75 | 90 | 6.0 | 15.0 | 0.00 | 0.00 | 0.00 | 39 | 1025.2 |
| 20260901014459 | 75 | 90 | 14.0 | 15.0 | 0.00 | 0.00 | 0.00 | 40 | 1025.1 |
| 20260901014358 | 75 | 135 | 4.0 | 12.0 | 0.00 | 0.00 | 0.00 | 42 | 1025.0 |
| 20260901014255 | 75 | 45 | 12.0 | 12.0 | 0.00 | 0.00 | 0.00 | 41 | 1025.2 |
| 20260901014045 | 74 | 90 | 3.0 | 15.0 | 0.00 | 0.00 | 0.00 | 41 | 1025.2 |
| 20260901013741 | 74 | 135 | 12.0 | 15.0 | 0.00 | 0.00 | 0.00 | 41 | 1025.3 |
| 20260901013238 | 74 | 90 | 11.0 | 14.0 | 0.00 | 0.00 | 0.00 | 43 | 1025.5 |
| 20260901012737 | 74 | 135 | 10.0 | 10.0 | 0.00 | 0.00 | 0.00 | 44 | 1025.5 |
| 20260901012433 | 74 | 202 | 2.0 | 9.0 | 0.00 | 0.00 | 0.00 | 45 | 1025.7 |
| 20260901011932 | 73 | 303 | 2.0 | 13.0 | 0.00 | 0.00 | 0.00 | 45 | 1025.8 |
| 20260901011327 | 73 | 101 | 6.0 | 11.0 | 0.00 | 0.00 | 0.00 | 44 | 1025.8 |
| 20260901010823 | 73 | 112 | 7.0 | 14.0 | 0.00 | 0.00 | 0.00 | 44 | 1025.9 |
| 20260901010322 | 72 | 90 | 9.0 | 9.0 | 0.00 | 0.00 | 0.00 | 45 | 1026.1 |
| 20260901010219 | 72 | 90 | 0.0 | 7.0 | 0.00 | 0.00 | 0.00 | 46 | 1026.1 |
| 20260901005716 | 72 | 78 | 4.0 | 13.0 | 0.00 | 0.00 | 0.00 | 46 | 1026.2 |
| 20260901005314 | 72 | 90 | 13.0 | 13.0 | 0.00 | 0.00 | 0.00 | 46 | 1026.3 |
| 20260901005002 | 72 | 0 | 5.0 | 13.0 | 0.00 | 0.00 | 0.00 | 46 | 1026.4 |
| 20260901004832 | 72 | 45 | 13.0 | 13.0 | 0.00 | 0.00 | 0.00 | 46 | 1026.2 |
| 20260901004628 | 72 | 22 | 3.0 | 13.0 | 0.00 | 0.00 | 0.00 | 46 | 1026.6 |
| 20260901004337 | 71 | 135 | 11.0 | 12.0 | 0.00 | 0.00 | 0.00 | 46 | 1026.6 |
| 20260901003836 | 71 | 90 | 10.0 | 12.0 | 0.00 | 0.00 | 0.00 | 46 | 1026.7 |
| 20260901003332 | 71 | 90 | 11.0 | 12.0 | 0.00 | 0.00 | 0.00 | 46 | 1026.7 |
| 20260901002830 | 71 | 90 | 9.0 | 13.0 | 0.00 | 0.00 | 0.00 | 47 | 1026.8 |
| 20260901002326 | 70 | 90 | 11.0 | 15.0 | 0.00 | 0.00 | 0.00 | 47 | 1026.8 |
| 20260901001825 | 70 | 78 | 7.0 | 9.0 | 0.00 | 0.00 | 0.00 | 49 | 1026.9 |
| 20260901000819 | 70 | 112 | 7.0 | 15.0 | 0.00 | 0.00 | 0.00 | 49 | 1026.9 |
| 20260901000438 | 70 | 90 | 15.0 | 15.0 | 0.00 | 0.00 | 0.00 | 49 | 1026.9 |
| 20260901000226 | 70 | 135 | 6.0 | 10.0 | 0.00 | 0.00 | 0.00 | 50 | 1027.0 |
| 20260831235723 | 70 | 157 | 6.0 | 11.0 | 0.00 | 0.00 | 0.00 | 52 | 1027.1 |
| 20260831235220 | 69 | 90 | 6.0 | 10.0 | 0.00 | 0.00 | 0.00 | 51 | 1027.0 |
| 20260831234720 | 69 | 45 | 7.0 | 11.0 | 0.00 | 0.00 | 0.00 | 53 | 1027.2 |
| 20260831234216 | 69 | 90 | 10.0 | 13.0 | 0.00 | 0.00 | 0.00 | 53 | 1027.2 |
| 20260831233713 | 69 | 90 | 8.0 | 14.0 | 0.00 | 0.00 | 0.00 | 55 | 1027.2 |
| 20260831233211 | 69 | 90 | 7.0 | 16.0 | 0.00 | 0.00 | 0.00 | 55 | 1027.2 |
| 20260831232758 | 68 | 101 | 16.0 | 16.0 | 0.00 | 0.00 | 0.00 | 56 | 1027.2 |
| 20260831232526 | 68 | 90 | 7.0 | 10.0 | 0.00 | 0.00 | 0.00 | 57 | 1027.4 |
| 20260831232024 | 68 | 90 | 7.0 | 12.0 | 0.00 | 0.00 | 0.00 | 58 | 1027.4 |
| 20260831231522 | 67 | 112 | 5.0 | 10.0 | 0.00 | 0.00 | 0.00 | 59 | 1027.5 |
| 20260831231020 | 67 | 90 | 11.0 | 11.0 | 0.00 | 0.00 | 0.00 | 60 | 1027.6 |
| 20260831230718 | 67 | 112 | 3.0 | 13.0 | 0.00 | 0.00 | 0.00 | 62 | 1027.6 |
| 20260831230536 | 67 | 90 | 11.0 | 13.0 | 0.00 | 0.00 | 0.00 | 61 | 1027.7 |
| 20260831230034 | 66 | 112 | 9.0 | 11.0 | 0.00 | 0.00 | 0.00 | 63 | 1027.8 |